Tracking 22124 objects as of 25-Jan-2021
HD Live streaming from Space Station
objects crossing your sky now

STARLINK-1299

Track STARLINK-1299 now!
10-day predictions
STARLINK-1299 is classified as:


NORAD ID: 45418
Int'l Code: 2020-019BL
Perigee: 573.2 km
Apogee: 575.8 km
Inclination: 53.0 °
Period: 96.0 minutes
Semi major axis: 6945 km
RCS: Unknown
Launch date: March 18, 2020
Source: United States (US)
Launch site: AIR FORCE EASTERN TEST RANGE (AFETR)
aabbcc
Your satellite tracking list
Your tracking list is empty




NASA's NSSDC Master Catalog

Two Line Element Set (TLE):
1 45418U 20019BL  21024.94773444  .00001255  00000-0  12135-3 0  9993
2 45418  53.0024 287.9052 0001896  79.2181 280.9018 14.99860032 47543
Source of the keplerian elements: AFSPC